Change the Weather History Date:

Sunday, September 8, 2013

  Actual Average Record
Temperature  
Mean Temperature 80 °F 66 °F  
Max Temperature 96 °F 80 °F 97 °F (1940)
Min Temperature 63 °F 52 °F 32 °F (1941)
Degree Days  
Heating Degree Days 0    
Month to date heating degree days 0  
Cooling Degree Days 15    
Month to date cooling degree days 107  
Growing Degree Days 30 (Base 50)    
Moisture  
Dew Point 42 °F    
Average Humidity 29    
Maximum Humidity 45    
Minimum Humidity 13    
Precipitation  
Precipitation 0.00 in 0.05 in 2.09 in (1963)
Month to date precipitation 0.01 0.38  
Year to date precipitation 11.43 13.87  
Sea Level Pressure  
Sea Level Pressure 29.76 in    
Wind  
Wind Speed 17 mph (SSW)    
Max Wind Speed 26 mph    
Max Gust Speed 37 mph    
Visibility 10 miles    
Events      
T = Trace of Precipitation, MM = Missing Value Source: NWS Daily Summary

Daily Weather History Graph

Daily Weather History Graph

Search for Another Location

Airport or City:

Trip Planner

Search our weather history database for the weather conditions in past years. The results will help you decide how hot, cold, wet, or windy it might be!

Date:

Astronomy

Sep. 08, 2013 Rise Set
Actual Time 6:27 AM MDT 7:12 PM MDT
Civil Twilight 5:59 AM MDT 7:40 PM MDT
Nautical Twilight 5:27 AM MDT 8:12 PM MDT
Astronomical Twilight 4:53 AM MDT 8:46 PM MDT
Moon 9:47 AM MDT (9/8) 8:49 PM MDT (9/8)
Length of Visible Light 13h 40m
Length of Day
12h 45m
Waxing Crescent, 11% of the Moon is Illuminated
Sep 8
Waxing Crescent
Sep 12
First Quarter
Sep 19
Full
Sep 26
Last Quarter
Oct 4
New

Hourly Weather History & Observations

Time (MDT) Temp. Dew Point Humidity Pressure Visibility Wind Dir Wind Speed Gust Speed Precip Events Conditions
12:53 AM 75.9 °F 44.1 °F 32% 29.85 in 10.0 mi South 19.6 mph 26.5 mph N/A   Clear
1:53 AM 75.0 °F 45.0 °F 34% 29.83 in 10.0 mi South 19.6 mph 26.5 mph N/A   Clear
2:53 AM 75.0 °F 46.0 °F 36% 29.83 in 10.0 mi South 13.8 mph 26.5 mph N/A   Clear
3:53 AM 73.0 °F 46.0 °F 38% 29.83 in 10.0 mi SSW 11.5 mph - N/A   Clear
4:53 AM 70.0 °F 46.0 °F 42% 29.83 in 10.0 mi SSW 10.4 mph - N/A   Clear
5:53 AM 69.1 °F 45.0 °F 42% 29.83 in 10.0 mi South 9.2 mph - N/A   Clear
6:53 AM 66.0 °F 45.0 °F 47% 29.86 in 10.0 mi SSW 9.2 mph - N/A   Clear
7:53 AM 75.0 °F 46.0 °F 36% 29.85 in 10.0 mi SSW 13.8 mph - N/A   Clear
8:53 AM 84.9 °F 45.0 °F 25% 29.82 in 10.0 mi SSW 10.4 mph 23.0 mph N/A   Clear
9:53 AM 88.0 °F 44.1 °F 22% 29.82 in 10.0 mi SSW 20.7 mph 33.4 mph N/A   Clear
10:53 AM 90.0 °F 42.1 °F 19% 29.79 in 10.0 mi South 23.0 mph 35.7 mph N/A   Clear
11:53 AM 91.9 °F 41.0 °F 17% 29.77 in 10.0 mi SSW 16.1 mph 26.5 mph N/A   Clear
12:53 PM 93.0 °F 39.0 °F 15% 29.74 in 10.0 mi SSW 13.8 mph 29.9 mph N/A   Clear
1:53 PM 93.9 °F 39.9 °F 15% 29.72 in 10.0 mi South 13.8 mph 26.5 mph N/A   Clear
2:53 PM 95.0 °F 39.0 °F 14% 29.70 in 10.0 mi South 21.9 mph 27.6 mph N/A   Clear
3:53 PM 93.9 °F 37.9 °F 14% 29.68 in 10.0 mi South 17.3 mph 27.6 mph N/A   Clear
4:53 PM 93.9 °F 36.0 °F 13% 29.66 in 10.0 mi South 19.6 mph 29.9 mph N/A   Clear
5:53 PM 91.9 °F 37.0 °F 15% 29.66 in 10.0 mi South 24.2 mph 31.1 mph N/A   Clear
6:53 PM 88.0 °F 37.9 °F 17% 29.68 in 10.0 mi South 21.9 mph 26.5 mph N/A   Clear
7:53 PM 82.9 °F 37.0 °F 19% 29.68 in 10.0 mi South 19.6 mph 25.3 mph N/A   Clear
8:53 PM 80.1 °F 39.0 °F 23% 29.68 in 10.0 mi South 15.0 mph 26.5 mph N/A   Clear
9:53 PM 78.1 °F 39.9 °F 25% 29.68 in 10.0 mi South 18.4 mph 25.3 mph N/A   Clear
10:53 PM 79.0 °F 39.9 °F 25% 29.70 in 10.0 mi SSW 21.9 mph 29.9 mph N/A   Clear
11:53 PM 77.0 °F 42.1 °F 29% 29.70 in 10.0 mi SSW 15.0 mph 25.3 mph N/A   Clear